sat.trackr.live / text

‹ back to catalog

STARLINK-32839

NORAD 63077 · 2025-037A

PAYLOAD ACTIVE UNKNOWN

§ Identity

Operator
Country
US
Launch date
2025-02-23
Launch site
AFWTR
Launch vehicle
Mass (kg)
RCS (m²)

Purposes: comms

External: N2YO · Heavens-Above · Gunter

§ Orbital elements

Epoch: 2026-09-20T14:40:04.437408Z

Period
94.14 min
Inclination
70.0058°
Eccentricity
0.0001919
Mean motion
15.29626061 rev/d
Perigee alt
475.6 km
Apogee alt
478.2 km
Semi-major
6,855.1 km
B*
7.8170e-4
RAAN
220.8292°
Arg perigee
262.6204°
Mean anomaly
97.4753°
Rev number
8,784

§ Raw data

STARLINK-328391 63077U 25037A   26263.61116247  .00022440  00000+0  78170-3 0  99942 63077  70.0058 220.8292 0001919 262.6204  97.4753 15.29626061 87842

JSON: /api/v1/satellites/63077 · /tle

For live sub-satellite position, see the globe view (requires WebGL).

§ Visibility from observer

Set your observer location to see the next 7 days of passes ≥ 10°. The values pass through the URL so the page stays shareable.

No JS? Fill the form by hand. The geolocation button needs JavaScript.